Change the Weather History Date:

Sunday, December 23, 2012

  Actual Average (KMSY) Record (KMSY)
Temperature  
Mean Temperature 53 °F -  
Max Temperature 64 °F 63 °F 81 °F (1970)
Min Temperature 42 °F 45 °F 11 °F (1989)
Degree Days  
Heating Degree Days 12    
Growing Degree Days 3 (Base 50)    
Moisture  
Dew Point 52 °F    
Average Humidity 88    
Maximum Humidity 100    
Minimum Humidity 73    
Precipitation  
Precipitation 0.00 in - - ()
Sea Level Pressure  
Sea Level Pressure 30.12 in    
Wind  
Wind Speed 3 mph (SE)    
Max Wind Speed 12 mph    
Max Gust Speed -    
Visibility 10 miles    
Events      
Averages and records for this station are not official NWS values.
T = Trace of Precipitation, MM = Missing Value Source: NWS Daily Summary

Daily Weather History Graph

Daily Weather History Graph

Search for Another Location

Airport or City:

Trip Planner

Search our weather history database for the weather conditions in past years. The results will help you decide how hot, cold, wet, or windy it might be!

Date:

Astronomy

Dec. 23, 2012 Rise Set
Actual Time 6:55 AM CST 5:06 PM CST
Civil Twilight 6:29 AM CST 5:32 PM CST
Nautical Twilight 5:59 AM CST 6:02 PM CST
Astronomical Twilight 5:29 AM CST 6:32 PM CST
Moon 1:49 PM CST (12/23) 2:47 AM CST (12/23)
Length of Visible Light 11h 03m
Length of Day
10h 10m
Waxing Gibbous, 82% of the Moon is Illuminated
Dec 23
Waxing Gibbous
Dec 28
Full
Jan 4
Last Quarter
Jan 11
New
Jan 18
First Quarter

Hourly Weather History & Observations

Time (CST) Temp. Windchill Dew Point Humidity Pressure Visibility Wind Dir Wind Speed Gust Speed Precip Events Conditions
12:15 AM 42.8 °F - 42.8 °F 100% 30.26 in 10.0 mi Calm Calm - N/A   Clear
12:35 AM 44.6 °F - 42.8 °F 93% 30.24 in 10.0 mi Calm Calm - N/A   Clear
12:55 AM 44.6 °F - 42.8 °F 93% 30.23 in 10.0 mi Calm Calm - N/A   Clear
1:15 AM 44.6 °F - 41.0 °F 87% 30.23 in 10.0 mi Calm Calm - N/A   Clear
1:35 AM 44.6 °F - 42.8 °F 93% 30.23 in 10.0 mi Calm Calm - N/A   Scattered Clouds
1:55 AM 44.6 °F - 42.8 °F 93% 30.23 in 10.0 mi Calm Calm - N/A   Scattered Clouds
2:15 AM 44.6 °F - 44.6 °F 100% 30.23 in 10.0 mi Calm Calm - N/A   Clear
2:35 AM 44.6 °F - 42.8 °F 93% 30.22 in 10.0 mi Calm Calm - N/A   Clear
2:55 AM 44.6 °F 43.1 °F 42.8 °F 93% 30.22 in 10.0 mi North 3.5 mph - N/A   Clear
3:15 AM 44.6 °F - 44.6 °F 100% 30.22 in 10.0 mi Calm Calm - N/A   Scattered Clouds
3:35 AM 44.6 °F - 44.6 °F 100% 30.21 in 10.0 mi Calm Calm - N/A   Scattered Clouds
3:55 AM 46.4 °F - 44.6 °F 93% 30.21 in 10.0 mi Calm Calm - N/A   Scattered Clouds
4:15 AM 44.6 °F - 44.6 °F 100% 30.21 in 10.0 mi Calm Calm - N/A   Mostly Cloudy
4:35 AM 46.4 °F - 44.6 °F 93% 30.20 in 10.0 mi Calm Calm - N/A   Scattered Clouds
4:55 AM 46.4 °F - 44.6 °F 93% 30.21 in 10.0 mi Calm Calm - N/A   Mostly Cloudy
5:15 AM 46.4 °F - 44.6 °F 93% 30.21 in 10.0 mi Calm Calm - N/A   Mostly Cloudy
5:35 AM 46.4 °F - 44.6 °F 93% 30.21 in 10.0 mi Calm Calm - N/A   Scattered Clouds
5:55 AM 48.2 °F - 44.6 °F 87% 30.20 in 10.0 mi Calm Calm - N/A   Scattered Clouds
6:15 AM 48.2 °F - 44.6 °F 87% 30.21 in 10.0 mi Calm Calm - N/A   Scattered Clouds
6:35 AM 48.2 °F - 44.6 °F 87% 30.21 in 10.0 mi Calm Calm - N/A   Scattered Clouds
6:55 AM 48.2 °F - 44.6 °F 87% 30.19 in 10.0 mi ESE 3.5 mph - N/A   Scattered Clouds
7:15 AM 48.2 °F - 46.4 °F 93% 30.20 in 10.0 mi Calm Calm - N/A   Scattered Clouds
7:35 AM 48.2 °F - 46.4 °F 93% 30.19 in 10.0 mi Calm Calm - N/A   Clear
7:55 AM 50.0 °F - 48.2 °F 94% 30.19 in 10.0 mi SE 4.6 mph - N/A   Clear
8:15 AM 51.8 °F - 50.0 °F 94% 30.19 in 10.0 mi SE 4.6 mph - N/A   Scattered Clouds
8:35 AM 53.6 °F - 50.0 °F 88% 30.20 in 10.0 mi ESE 3.5 mph - N/A   Mostly Cloudy
8:55 AM 53.6 °F - 50.0 °F 88% 30.20 in 10.0 mi SE 4.6 mph - N/A   Scattered Clouds
9:15 AM 53.6 °F - 51.8 °F 94% 30.20 in 10.0 mi SE 4.6 mph - N/A   Scattered Clouds
9:35 AM 55.4 °F - 51.8 °F 88% 30.19 in 10.0 mi SE 5.8 mph - N/A   Mostly Cloudy
9:55 AM 57.2 °F - 53.6 °F 88% 30.19 in 10.0 mi SE 8.1 mph - N/A   Mostly Cloudy
10:15 AM 59.0 °F - 53.6 °F 82% 30.18 in 10.0 mi SE 6.9 mph - N/A   Mostly Cloudy
10:35 AM 59.0 °F - 53.6 °F 82% 30.18 in 10.0 mi SE 6.9 mph - N/A   Overcast
10:55 AM 59.0 °F - 53.6 °F 82% 30.17 in 10.0 mi SE 5.8 mph - N/A   Overcast
11:15 AM 60.8 °F - 53.6 °F 77% 30.16 in 10.0 mi SE 6.9 mph - N/A   Overcast
11:35 AM 60.8 °F - 55.4 °F 82% 30.15 in 10.0 mi SE 6.9 mph - N/A   Overcast
11:55 AM 62.6 °F - 55.4 °F 77% 30.13 in 10.0 mi SE 6.9 mph - N/A   Overcast
12:15 PM 64.4 °F - 55.4 °F 73% 30.12 in 10.0 mi SSE 11.5 mph - N/A   Mostly Cloudy
12:35 PM 64.4 °F - 55.4 °F 73% 30.11 in 10.0 mi SSE 9.2 mph - N/A   Overcast
12:55 PM 64.4 °F - 55.4 °F 73% 30.10 in 10.0 mi SE 9.2 mph - N/A   Overcast
1:15 PM 64.4 °F - 55.4 °F 73% 30.09 in 10.0 mi SSE 10.4 mph - N/A   Overcast
1:35 PM 64.4 °F - 57.2 °F 77% 30.08 in 10.0 mi SSE 8.1 mph - N/A   Overcast
1:55 PM 64.4 °F - 57.2 °F 77% 30.07 in 10.0 mi SSE 10.4 mph - N/A   Overcast
2:15 PM 64.4 °F - 57.2 °F 77% 30.07 in 10.0 mi SE 5.8 mph - N/A   Overcast
2:35 PM 64.4 °F - 57.2 °F 77% 30.06 in 10.0 mi SE 8.1 mph - N/A   Overcast
2:55 PM 64.4 °F - 57.2 °F 77% 30.05 in 10.0 mi ESE 6.9 mph - N/A   Overcast
3:15 PM 64.4 °F - 57.2 °F 77% 30.05 in 10.0 mi SE 5.8 mph - N/A   Overcast
3:35 PM 64.4 °F - 57.2 °F 77% 30.04 in 10.0 mi SE 8.1 mph - N/A   Overcast
3:55 PM 62.6 °F - 57.2 °F 82% 30.04 in 10.0 mi SE 5.8 mph - N/A   Overcast
4:15 PM 62.6 °F - 57.2 °F 82% 30.03 in 10.0 mi SE 5.8 mph - N/A   Overcast
4:35 PM 62.6 °F - 59.0 °F 88% 30.03 in 10.0 mi SE 5.8 mph - N/A   Overcast
4:55 PM 62.6 °F - 59.0 °F 88% 30.02 in 10.0 mi SE 6.9 mph - N/A   Overcast
5:15 PM 60.8 °F - 57.2 °F 88% 30.02 in 10.0 mi SE 5.8 mph - N/A   Scattered Clouds
5:35 PM 60.8 °F - 57.2 °F 88% 30.02 in 10.0 mi ESE 5.8 mph - N/A   Scattered Clouds
5:55 PM 60.8 °F - 57.2 °F 88% 30.02 in 10.0 mi SE 5.8 mph - N/A   Mostly Cloudy
6:15 PM 60.8 °F - 57.2 °F 88% 30.02 in 10.0 mi SE 5.8 mph - N/A   Overcast
6:35 PM 60.8 °F - 59.0 °F 94% 30.02 in 10.0 mi SE 5.8 mph - N/A   Overcast
6:55 PM 62.6 °F - 59.0 °F 88% 30.02 in 10.0 mi SE 5.8 mph - N/A   Overcast
7:15 PM 62.6 °F - 59.0 °F 88% 30.02 in 10.0 mi SE 6.9 mph - N/A   Overcast
7:35 PM 62.6 °F - 59.0 °F 88% 30.02 in 10.0 mi SE 5.8 mph - N/A   Overcast
7:55 PM 62.6 °F - 59.0 °F 88% 30.02 in 10.0 mi SE 5.8 mph - N/A   Overcast
8:15 PM 62.6 °F - 59.0 °F 88% 30.02 in 10.0 mi SSE 5.8 mph - N/A   Overcast
8:55 PM 62.6 °F - 59.0 °F 88% 30.01 in 10.0 mi SSE 5.8 mph - N/A   Overcast
9:15 PM 62.6 °F - 59.0 °F 88% 30.01 in 10.0 mi SSE 6.9 mph - N/A   Overcast
9:35 PM 62.6 °F - 59.0 °F 88% 30.01 in 10.0 mi SSE 5.8 mph - N/A   Overcast
9:55 PM 60.8 °F - 59.0 °F 94% 30.01 in 10.0 mi SE 5.8 mph - N/A   Overcast
10:15 PM 60.8 °F - 59.0 °F 94% 30.00 in 10.0 mi SSE 4.6 mph - N/A   Scattered Clouds
10:35 PM 60.8 °F - 59.0 °F 94% 30.00 in 10.0 mi SE 4.6 mph - N/A   Clear
10:55 PM 60.8 °F - 59.0 °F 94% 30.00 in 10.0 mi SSE 3.5 mph - N/A   Scattered Clouds
11:15 PM 60.8 °F - 59.0 °F 94% 30.00 in 10.0 mi Calm Calm - N/A   Mostly Cloudy
11:35 PM 60.8 °F - 59.0 °F 94% 30.00 in 10.0 mi Calm Calm - N/A   Overcast
11:55 PM 60.8 °F - 59.0 °F 94% 29.98 in 10.0 mi SSE 3.5 mph - N/A   Mostly Cloudy